| time (UTC) | temp F | wind direction | speed MPH | gust MPH | rain 1hr in | rain 24hr in | rain mn in | humidity % | barometer mb |
| 20260507051112 | 72 | 293 | 0.0 | 0.0 | 0.00 | 0.00 | 0.00 | 91 | 1017.2 |
| 20260507050612 | 72 | 293 | 0.0 | 10.0 | 0.00 | 0.00 | 0.00 | 91 | 1017.2 |
| 20260507050118 | 72 | 293 | 0.0 | 0.0 | 0.00 | 0.00 | 0.00 | 91 | 1017.3 |
| 20260507045611 | 72 | 293 | 0.0 | 0.0 | 0.00 | 0.00 | 0.00 | 91 | 1017.3 |
| 20260507045112 | 72 | 293 | 0.0 | 0.0 | 0.00 | 0.00 | 0.00 | 91 | 1017.5 |
| 20260507044612 | 73 | 293 | 0.0 | 0.0 | 0.00 | 0.00 | 0.00 | 91 | 1017.4 |
| 20260507044112 | 73 | 293 | 0.0 | 1.0 | 0.00 | 0.00 | 0.00 | 91 | 1017.4 |
| 20260507043611 | 73 | 293 | 0.0 | 0.0 | 0.00 | 0.00 | 0.00 | 91 | 1017.5 |
| 20260507043112 | 73 | 293 | 0.0 | 0.0 | 0.00 | 0.00 | 0.00 | 91 | 1017.6 |
| 20260507042612 | 73 | 293 | 0.0 | 0.0 | 0.00 | 0.00 | 0.00 | 91 | 1017.7 |
| 20260507042112 | 73 | 293 | 0.0 | 0.0 | 0.00 | 0.00 | 0.00 | 91 | 1017.8 |
| 20260507041612 | 73 | 293 | 0.0 | 0.0 | 0.00 | 0.00 | 0.00 | 90 | 1017.8 |
| 20260507041112 | 73 | 293 | 0.0 | 0.0 | 0.00 | 0.00 | 0.00 | 90 | 1017.9 |
| 20260507040612 | 73 | 293 | 0.0 | 1.0 | 0.00 | 0.00 | 0.00 | 90 | 1017.9 |
| 20260507040118 | 74 | 293 | 0.0 | 0.0 | 0.00 | 0.00 | 0.00 | 91 | 1017.8 |
| 20260507035113 | 74 | 293 | 0.0 | 0.0 | 0.00 | 0.00 | 0.00 | 91 | 1017.7 |
| 20260507034612 | 73 | 293 | 0.0 | 0.0 | 0.00 | 0.00 | 0.00 | 91 | 1017.7 |
| 20260507034112 | 73 | 293 | 0.0 | 0.0 | 0.00 | 0.00 | 0.00 | 90 | 1017.8 |
| 20260507033612 | 73 | 293 | 0.0 | 0.0 | 0.00 | 0.00 | 0.00 | 90 | 1017.7 |
| 20260507033112 | 73 | 293 | 0.0 | 1.0 | 0.00 | 0.00 | 0.00 | 90 | 1017.9 |
| 20260507032612 | 73 | 293 | 0.0 | 0.0 | 0.00 | 0.00 | 0.00 | 90 | 1018.0 |
| 20260507032112 | 74 | 293 | 0.0 | 0.0 | 0.00 | 0.00 | 0.00 | 90 | 1017.8 |
| 20260507031612 | 74 | 293 | 0.0 | 0.0 | 0.00 | 0.00 | 0.00 | 89 | 1017.9 |
| 20260507030612 | 74 | 293 | 0.0 | 0.0 | 0.00 | 0.00 | 0.00 | 88 | 1017.6 |
| 20260507030118 | 75 | 293 | 0.0 | 0.0 | 0.00 | 0.00 | 0.00 | 88 | 1017.6 |
| 20260507025611 | 75 | 293 | 0.0 | 0.0 | 0.00 | 0.00 | 0.00 | 88 | 1017.6 |
| 20260507025112 | 75 | 293 | 0.0 | 0.0 | 0.00 | 0.00 | 0.00 | 88 | 1017.7 |
| 20260507024612 | 75 | 293 | 0.0 | 0.0 | 0.00 | 0.00 | 0.00 | 87 | 1017.7 |
| 20260507024112 | 76 | 293 | 0.0 | 0.0 | 0.00 | 0.00 | 0.00 | 87 | 1017.5 |
| 20260507023112 | 76 | 293 | 0.0 | 0.0 | 0.00 | 0.00 | 0.00 | 86 | 1017.4 |
| 20260507022612 | 76 | 293 | 0.0 | 0.0 | 0.00 | 0.00 | 0.00 | 86 | 1017.5 |
| 20260507022111 | 76 | 293 | 1.0 | 2.0 | 0.00 | 0.00 | 0.00 | 86 | 1017.5 |
| 20260507021611 | 76 | 293 | 0.0 | 3.0 | 0.00 | 0.00 | 0.00 | 86 | 1017.4 |
| 20260507021112 | 76 | 322 | 2.0 | 3.0 | 0.00 | 0.00 | 0.00 | 86 | 1017.4 |
| 20260507020612 | 77 | 317 | 1.0 | 3.0 | 0.00 | 0.00 | 0.00 | 86 | 1017.3 |
| 20260507020118 | 77 | 320 | 1.0 | 2.0 | 0.00 | 0.00 | 0.00 | 85 | 1017.3 |
| 20260507015612 | 77 | 317 | 0.0 | 1.0 | 0.00 | 0.00 | 0.00 | 85 | 1017.3 |
| 20260507014612 | 77 | 323 | 1.0 | 3.0 | 0.00 | 0.00 | 0.00 | 84 | 1017.2 |
| 20260507014112 | 77 | 336 | 2.0 | 3.0 | 0.00 | 0.00 | 0.00 | 84 | 1017.2 |
| 20260507013612 | 78 | 305 | 0.0 | 3.0 | 0.00 | 0.00 | 0.00 | 84 | 1017.0 |
| 20260507013112 | 78 | 328 | 2.0 | 5.0 | 0.00 | 0.00 | 0.00 | 83 | 1017.0 |
| 20260507012612 | 78 | 323 | 1.0 | 3.0 | 0.00 | 0.00 | 0.00 | 83 | 1017.1 |
| 20260507012111 | 78 | 309 | 2.0 | 5.0 | 0.00 | 0.00 | 0.00 | 83 | 1017.0 |
| 20260507011611 | 78 | 326 | 0.0 | 3.0 | 0.00 | 0.00 | 0.00 | 82 | 1017.0 |
| 20260507011112 | 79 | 323 | 2.0 | 3.0 | 0.00 | 0.00 | 0.00 | 82 | 1017.0 |
| 20260507010612 | 79 | 325 | 2.0 | 3.0 | 0.00 | 0.00 | 0.00 | 81 | 1017.0 |
| 20260507010118 | 79 | 324 | 2.0 | 5.0 | 0.00 | 0.00 | 0.00 | 81 | 1016.9 |
| 20260507005612 | 80 | 316 | 2.0 | 5.0 | 0.00 | 0.00 | 0.00 | 80 | 1017.0 |
| 20260507005112 | 80 | 331 | 1.0 | 3.0 | 0.00 | 0.00 | 0.00 | 80 | 1017.0 |
| 20260507004611 | 80 | 331 | 2.0 | 3.0 | 0.00 | 0.00 | 0.00 | 79 | 1016.9 |
| 20260507004112 | 80 | 317 | 2.0 | 6.0 | 0.00 | 0.00 | 0.00 | 79 | 1016.7 |
| 20260507003612 | 80 | 317 | 2.0 | 7.0 | 0.00 | 0.00 | 0.00 | 78 | 1016.7 |
| 20260507003112 | 81 | 296 | 2.0 | 7.0 | 0.00 | 0.00 | 0.00 | 78 | 1016.6 |
| 20260507002612 | 81 | 323 | 1.0 | 5.0 | 0.00 | 0.00 | 0.00 | 77 | 1016.6 |
| 20260507002112 | 81 | 326 | 2.0 | 3.0 | 0.00 | 0.00 | 0.00 | 77 | 1016.6 |
| 20260507001611 | 81 | 299 | 3.0 | 7.0 | 0.00 | 0.00 | 0.00 | 76 | 1016.4 |
| 20260507001112 | 82 | 334 | 2.0 | 6.0 | 0.00 | 0.00 | 0.00 | 76 | 1016.4 |
| 20260507000117 | 82 | 320 | 3.0 | 7.0 | 0.00 | 0.00 | 0.00 | 76 | 1016.4 |
| 20260506235612 | 83 | 318 | 3.0 | 7.0 | 0.00 | 0.00 | 0.00 | 75 | 1016.3 |
| 20260506235111 | 83 | 322 | 2.0 | 7.0 | 0.00 | 0.00 | 0.00 | 75 | 1016.3 |
| 20260506234611 | 83 | 317 | 4.0 | 7.0 | 0.00 | 0.00 | 0.00 | 74 | 1016.3 |
| 20260506234112 | 84 | 310 | 3.0 | 7.0 | 0.00 | 0.00 | 0.00 | 74 | 1016.3 |
| 20260506233612 | 84 | 320 | 2.0 | 7.0 | 0.00 | 0.00 | 0.00 | 74 | 1016.3 |
| 20260506233112 | 84 | 300 | 4.0 | 7.0 | 0.00 | 0.00 | 0.00 | 73 | 1016.2 |
| 20260506232612 | 85 | 314 | 3.0 | 8.0 | 0.00 | 0.00 | 0.00 | 73 | 1016.1 |
| 20260506232111 | 85 | 325 | 2.0 | 6.0 | 0.00 | 0.00 | 0.00 | 72 | 1016.2 |
| 20260506231611 | 85 | 320 | 4.0 | 8.0 | 0.00 | 0.00 | 0.00 | 72 | 1016.1 |
| 20260506231111 | 85 | 323 | 5.0 | 9.0 | 0.00 | 0.00 | 0.00 | 71 | 1016.1 |
| 20260506230612 | 86 | 312 | 2.0 | 7.0 | 0.00 | 0.00 | 0.00 | 70 | 1016.1 |
| 20260506230117 | 86 | 320 | 3.0 | 10.0 | 0.00 | 0.00 | 0.00 | 70 | 1016.0 |
| 20260506225611 | 86 | 312 | 4.0 | 9.0 | 0.00 | 0.00 | 0.00 | 69 | 1015.9 |
| 20260506225111 | 87 | 322 | 4.0 | 8.0 | 0.00 | 0.00 | 0.00 | 68 | 1015.9 |
| 20260506224611 | 88 | 305 | 5.0 | 10.0 | 0.00 | 0.00 | 0.00 | 66 | 1015.8 |
| 20260506224111 | 89 | 302 | 4.0 | 9.0 | 0.00 | 0.00 | 0.00 | 64 | 1015.7 |
| 20260506223612 | 90 | 326 | 3.0 | 7.0 | 0.00 | 0.00 | 0.00 | 62 | 1015.7 |
| 20260506223112 | 90 | 304 | 2.0 | 5.0 | 0.00 | 0.00 | 0.00 | 57 | 1015.7 |
| 20260506222612 | 90 | 180 | 0.0 | 0.0 | 0.00 | 0.00 | 0.00 | 49 | 1015.7 |
| 20260506222111 | 91 | 180 | 0.0 | 0.0 | 0.00 | 0.00 | 0.00 | 50 | 1015.7 |
| 20260506221611 | 91 | 180 | 0.0 | 0.0 | 0.00 | 0.00 | 0.00 | 49 | 1015.8 |
| 20260506221111 | 91 | 180 | 0.0 | 0.0 | 0.00 | 0.00 | 0.00 | 48 | 1015.9 |
| 20260506215611 | 91 | 180 | 0.0 | 0.0 | 0.00 | 0.00 | 0.00 | 48 | 1015.8 |
| 20260506215112 | 91 | 180 | 0.0 | 0.0 | 0.00 | 0.00 | 0.00 | 47 | 1015.8 |
| 20260506214612 | 92 | 180 | 0.0 | 0.0 | 0.00 | 0.00 | 0.00 | 47 | 1015.9 |
| 20260506212611 | 92 | 181 | 1.0 | 2.0 | 0.00 | 0.00 | 0.00 | 45 | 1016.0 |
| 20260506212112 | 92 | 181 | 0.0 | 3.0 | 0.00 | 0.00 | 0.00 | 44 | 1016.0 |
| 20260506211611 | 93 | 185 | 2.0 | 5.0 | 0.00 | 0.00 | 0.00 | 44 | 1016.1 |
| 20260506211111 | 93 | 315 | 1.0 | 3.0 | 0.00 | 0.00 | 0.00 | 43 | 1016.0 |
| 20260506210611 | 93 | 314 | 1.0 | 3.0 | 0.00 | 0.00 | 0.00 | 42 | 1016.0 |
| 20260506210117 | 94 | 326 | 2.0 | 5.0 | 0.00 | 0.00 | 0.00 | 43 | 1015.9 |
| 20260506205611 | 94 | 301 | 1.0 | 3.0 | 0.00 | 0.00 | 0.00 | 43 | 1015.9 |
| 20260506205111 | 94 | 305 | 1.0 | 2.0 | 0.00 | 0.00 | 0.00 | 43 | 1015.9 |
| 20260506204612 | 94 | 337 | 2.0 | 3.0 | 0.00 | 0.00 | 0.00 | 42 | 1015.9 |
| 20260506204111 | 94 | 271 | 2.0 | 3.0 | 0.00 | 0.00 | 0.00 | 43 | 1015.9 |
| 20260506203611 | 94 | 179 | 2.0 | 3.0 | 0.00 | 0.00 | 0.00 | 43 | 1016.0 |
| 20260506203112 | 94 | 149 | 1.0 | 7.0 | 0.00 | 0.00 | 0.00 | 42 | 1016.0 |
| 20260506202612 | 94 | 140 | 3.0 | 6.0 | 0.00 | 0.00 | 0.00 | 43 | 1016.0 |
| 20260506201111 | 94 | 147 | 2.0 | 3.0 | 0.00 | 0.00 | 0.00 | 42 | 1016.2 |
| 20260506200118 | 94 | 271 | 2.0 | 5.0 | 0.00 | 0.00 | 0.00 | 43 | 1016.1 |
| 20260506195611 | 94 | 323 | 3.0 | 5.0 | 0.00 | 0.00 | 0.00 | 42 | 1016.1 |
| 20260506194612 | 95 | 174 | 2.0 | 5.0 | 0.00 | 0.00 | 0.00 | 42 | 1016.2 |
| 20260506194111 | 95 | 315 | 1.0 | 3.0 | 0.00 | 0.00 | 0.00 | 43 | 1016.2 |
| 20260506193611 | 94 | 334 | 2.0 | 7.0 | 0.00 | 0.00 | 0.00 | 40 | 1016.2 |
| 20260506193111 | 94 | 112 | 2.0 | 3.0 | 0.00 | 0.00 | 0.00 | 43 | 1016.3 |
| 20260506192612 | 94 | 225 | 1.0 | 3.0 | 0.00 | 0.00 | 0.00 | 42 | 1016.4 |
| 20260506192112 | 94 | 145 | 4.0 | 6.0 | 0.00 | 0.00 | 0.00 | 43 | 1016.6 |
| 20260506191611 | 94 | 240 | 2.0 | 9.0 | 0.00 | 0.00 | 0.00 | 44 | 1016.6 |
| 20260506191112 | 94 | 140 | 1.0 | 5.0 | 0.00 | 0.00 | 0.00 | 43 | 1016.7 |
| 20260506190611 | 93 | 136 | 2.0 | 5.0 | 0.00 | 0.00 | 0.00 | 44 | 1016.7 |
| 20260506190117 | 92 | 152 | 1.0 | 3.0 | 0.00 | 0.00 | 0.00 | 45 | 1016.8 |
| 20260506185611 | 92 | 184 | 4.0 | 9.0 | 0.00 | 0.00 | 0.00 | 44 | 1017.0 |
| 20260506185111 | 93 | 166 | 2.0 | 6.0 | 0.00 | 0.00 | 0.00 | 44 | 1017.0 |
| 20260506184111 | 93 | 124 | 3.0 | 8.0 | 0.00 | 0.00 | 0.00 | 44 | 1017.1 |
| 20260506183611 | 93 | 169 | 2.0 | 5.0 | 0.00 | 0.00 | 0.00 | 46 | 1017.2 |
| 20260506183111 | 92 | 156 | 3.0 | 5.0 | 0.00 | 0.00 | 0.00 | 47 | 1017.2 |
| 20260506182611 | 92 | 115 | 1.0 | 3.0 | 0.00 | 0.00 | 0.00 | 45 | 1017.3 |
| 20260506182111 | 92 | 136 | 3.0 | 6.0 | 0.00 | 0.00 | 0.00 | 46 | 1017.4 |
| 20260506181611 | 91 | 99 | 2.0 | 7.0 | 0.00 | 0.00 | 0.00 | 47 | 1017.4 |
| 20260506181111 | 91 | 164 | 5.0 | 9.0 | 0.00 | 0.00 | 0.00 | 48 | 1017.4 |
| 20260506175611 | 90 | 327 | 2.0 | 3.0 | 0.00 | 0.00 | 0.00 | 48 | 1017.5 |
| 20260506175111 | 91 | 161 | 2.0 | 5.0 | 0.00 | 0.00 | 0.00 | 49 | 1017.6 |
| 20260506174611 | 91 | 174 | 2.0 | 7.0 | 0.00 | 0.00 | 0.00 | 48 | 1017.7 |
| 20260506174111 | 91 | 176 | 3.0 | 8.0 | 0.00 | 0.00 | 0.00 | 49 | 1017.8 |
| 20260506173611 | 90 | 158 | 3.0 | 5.0 | 0.00 | 0.00 | 0.00 | 50 | 1017.8 |
| 20260506172611 | 90 | 36 | 2.0 | 6.0 | 0.00 | 0.00 | 0.00 | 49 | 1018.0 |
| 20260506172111 | 90 | 160 | 2.0 | 5.0 | 0.00 | 0.00 | 0.00 | 50 | 1018.0 |
| 20260506171612 | 90 | 247 | 2.0 | 5.0 | 0.00 | 0.00 | 0.00 | 50 | 1018.0 |
| 20260506170117 | 89 | 197 | 2.0 | 6.0 | 0.00 | 0.00 | 0.00 | 53 | 1018.3 |
| 20260506165111 | 89 | 155 | 3.0 | 7.0 | 0.00 | 0.00 | 0.00 | 53 | 1018.3 |
| 20260506164110 | 89 | 149 | 2.0 | 6.0 | 0.00 | 0.00 | 0.00 | 53 | 1018.3 |
| 20260506163610 | 89 | 207 | 3.0 | 8.0 | 0.00 | 0.00 | 0.00 | 55 | 1018.4 |
| 20260506163111 | 88 | 174 | 3.0 | 6.0 | 0.00 | 0.00 | 0.00 | 56 | 1018.3 |
| 20260506162611 | 87 | 126 | 2.0 | 6.0 | 0.00 | 0.00 | 0.00 | 55 | 1018.4 |
| 20260506162112 | 87 | 122 | 2.0 | 5.0 | 0.00 | 0.00 | 0.00 | 59 | 1018.5 |
| 20260506161611 | 87 | 168 | 3.0 | 7.0 | 0.00 | 0.00 | 0.00 | 58 | 1018.5 |
| 20260506161111 | 87 | 115 | 3.0 | 8.0 | 0.00 | 0.00 | 0.00 | 58 | 1018.5 |
| 20260506160611 | 87 | 222 | 2.0 | 6.0 | 0.00 | 0.00 | 0.00 | 58 | 1018.5 |
| 20260506160117 | 87 | 132 | 3.0 | 6.0 | 0.00 | 0.00 | 0.00 | 57 | 1018.5 |
| 20260506155610 | 87 | 152 | 1.0 | 7.0 | 0.00 | 0.00 | 0.00 | 59 | 1018.5 |
| 20260506155111 | 86 | 189 | 3.0 | 7.0 | 0.00 | 0.00 | 0.00 | 59 | 1018.5 |
| 20260506154612 | 86 | 157 | 3.0 | 8.0 | 0.00 | 0.00 | 0.00 | 59 | 1018.6 |
| 20260506154110 | 86 | 121 | 3.0 | 5.0 | 0.00 | 0.00 | 0.00 | 59 | 1018.6 |
| 20260506153611 | 85 | 163 | 5.0 | 10.0 | 0.00 | 0.00 | 0.00 | 60 | 1018.6 |
| 20260506153111 | 86 | 177 | 3.0 | 8.0 | 0.00 | 0.00 | 0.00 | 59 | 1018.7 |
| 20260506152611 | 85 | 173 | 2.0 | 7.0 | 0.00 | 0.00 | 0.00 | 62 | 1018.7 |
| 20260506152111 | 85 | 183 | 3.0 | 9.0 | 0.00 | 0.00 | 0.00 | 61 | 1018.6 |
| 20260506151111 | 85 | 109 | 3.0 | 8.0 | 0.00 | 0.00 | 0.00 | 62 | 1018.6 |
| 20260506150611 | 85 | 173 | 3.0 | 5.0 | 0.00 | 0.00 | 0.00 | 64 | 1018.7 |
| 20260506150117 | 84 | 184 | 3.0 | 6.0 | 0.00 | 0.00 | 0.00 | 65 | 1018.6 |
| 20260506145611 | 84 | 167 | 4.0 | 6.0 | 0.00 | 0.00 | 0.00 | 66 | 1018.5 |
| 20260506145110 | 83 | 165 | 2.0 | 9.0 | 0.00 | 0.00 | 0.00 | 67 | 1018.5 |
| 20260506144610 | 83 | 170 | 3.0 | 7.0 | 0.00 | 0.00 | 0.00 | 66 | 1018.6 |
| 20260506144111 | 83 | 212 | 3.0 | 8.0 | 0.00 | 0.00 | 0.00 | 68 | 1018.5 |
| 20260506143612 | 83 | 199 | 3.0 | 5.0 | 0.00 | 0.00 | 0.00 | 69 | 1018.5 |
| 20260506143111 | 82 | 186 | 2.0 | 6.0 | 0.00 | 0.00 | 0.00 | 71 | 1018.5 |
| 20260506141611 | 81 | 180 | 3.0 | 7.0 | 0.00 | 0.00 | 0.00 | 73 | 1018.6 |
| 20260506141111 | 80 | 170 | 3.0 | 7.0 | 0.00 | 0.00 | 0.00 | 75 | 1018.6 |
| 20260506140117 | 79 | 154 | 2.0 | 8.0 | 0.00 | 0.00 | 0.00 | 77 | 1018.6 |
| 20260506135611 | 78 | 158 | 3.0 | 8.0 | 0.00 | 0.00 | 0.00 | 79 | 1018.6 |
| 20260506135111 | 78 | 160 | 4.0 | 8.0 | 0.00 | 0.00 | 0.00 | 79 | 1018.6 |
| 20260506133612 | 77 | 156 | 2.0 | 5.0 | 0.00 | 0.00 | 0.00 | 82 | 1018.6 |
| 20260506133110 | 76 | 160 | 4.0 | 7.0 | 0.00 | 0.00 | 0.00 | 83 | 1018.6 |
| 20260506132610 | 75 | 164 | 3.0 | 6.0 | 0.00 | 0.00 | 0.00 | 84 | 1018.6 |
| 20260506131110 | 74 | 150 | 2.0 | 7.0 | 0.00 | 0.00 | 0.00 | 86 | 1018.5 |
| 20260506130611 | 74 | 147 | 1.0 | 6.0 | 0.00 | 0.00 | 0.00 | 87 | 1018.4 |
| 20260506130116 | 73 | 154 | 2.0 | 6.0 | 0.00 | 0.00 | 0.00 | 88 | 1018.4 |
| 20260506125611 | 72 | 137 | 2.0 | 6.0 | 0.00 | 0.00 | 0.00 | 89 | 1018.3 |
| 20260506125110 | 71 | 168 | 2.0 | 3.0 | 0.00 | 0.00 | 0.00 | 89 | 1018.3 |
| 20260506124611 | 70 | 160 | 2.0 | 6.0 | 0.00 | 0.00 | 0.00 | 89 | 1018.3 |
| 20260506124111 | 70 | 164 | 3.0 | 6.0 | 0.00 | 0.00 | 0.00 | 90 | 1018.2 |
| 20260506123611 | 69 | 150 | 2.0 | 3.0 | 0.00 | 0.00 | 0.00 | 91 | 1018.2 |
| 20260506121610 | 66 | 124 | 0.0 | 2.0 | 0.00 | 0.00 | 0.00 | 92 | 1017.9 |
| 20260506121111 | 65 | 124 | 0.0 | 1.0 | 0.00 | 0.00 | 0.00 | 93 | 1017.9 |
| 20260506120118 | 63 | 124 | 0.0 | 1.0 | 0.00 | 0.00 | 0.00 | 93 | 1017.9 |
| 20260506115610 | 63 | 124 | 0.0 | 0.0 | 0.00 | 0.00 | 0.00 | 93 | 1017.8 |
| 20260506115111 | 63 | 124 | 0.0 | 1.0 | 0.00 | 0.00 | 0.00 | 93 | 1017.8 |
| 20260506114610 | 62 | 124 | 0.0 | 0.0 | 0.00 | 0.00 | 0.00 | 93 | 1017.8 |
| 20260506113610 | 62 | 124 | 0.0 | 0.0 | 0.00 | 0.00 | 0.00 | 92 | 1017.9 |
| 20260506113110 | 62 | 124 | 0.0 | 0.0 | 0.00 | 0.00 | 0.00 | 93 | 1017.9 |
| 20260506112611 | 62 | 124 | 0.0 | 0.0 | 0.00 | 0.00 | 0.00 | 92 | 1017.8 |
| 20260506112110 | 61 | 124 | 0.0 | 0.0 | 0.00 | 0.00 | 0.00 | 92 | 1017.8 |
| 20260506111610 | 61 | 124 | 0.0 | 0.0 | 0.00 | 0.00 | 0.00 | 92 | 1017.7 |
| 20260506110610 | 61 | 124 | 0.0 | 0.0 | 0.00 | 0.00 | 0.00 | 92 | 1017.6 |
| 20260506110116 | 61 | 124 | 0.0 | 0.0 | 0.00 | 0.00 | 0.00 | 92 | 1017.6 |
| 20260506105610 | 61 | 147 | 0.0 | 0.0 | 0.00 | 0.00 | 0.00 | 92 | 1017.5 |
| 20260506105111 | 62 | 147 | 0.0 | 0.0 | 0.00 | 0.00 | 0.00 | 92 | 1017.4 |
| 20260506104610 | 61 | 147 | 0.0 | 0.0 | 0.00 | 0.00 | 0.00 | 92 | 1017.3 |
| 20260506104110 | 61 | 147 | 0.0 | 0.0 | 0.00 | 0.00 | 0.00 | 92 | 1017.3 |
| 20260506103611 | 61 | 147 | 0.0 | 0.0 | 0.00 | 0.00 | 0.00 | 92 | 1017.2 |
| 20260506102610 | 61 | 147 | 0.0 | 0.0 | 0.00 | 0.00 | 0.00 | 91 | 1017.1 |
| 20260506102110 | 61 | 147 | 0.0 | 0.0 | 0.00 | 0.00 | 0.00 | 91 | 1017.0 |
| 20260506101611 | 62 | 147 | 0.0 | 0.0 | 0.00 | 0.00 | 0.00 | 91 | 1017.0 |
| 20260506101111 | 62 | 147 | 0.0 | 0.0 | 0.00 | 0.00 | 0.00 | 91 | 1017.1 |
| 20260506100611 | 62 | 147 | 0.0 | 0.0 | 0.00 | 0.00 | 0.00 | 91 | 1017.1 |
| 20260506100117 | 62 | 147 | 0.0 | 0.0 | 0.00 | 0.00 | 0.00 | 91 | 1017.0 |
| 20260506095110 | 62 | 147 | 0.0 | 0.0 | 0.00 | 0.00 | 0.00 | 91 | 1017.1 |
| 20260506094610 | 62 | 147 | 0.0 | 0.0 | 0.00 | 0.00 | 0.00 | 91 | 1017.0 |
| 20260506094110 | 62 | 147 | 0.0 | 0.0 | 0.00 | 0.00 | 0.00 | 91 | 1017.0 |
| 20260506093610 | 62 | 147 | 0.0 | 0.0 | 0.00 | 0.00 | 0.00 | 91 | 1017.1 |
| 20260506093110 | 62 | 147 | 0.0 | 0.0 | 0.00 | 0.00 | 0.00 | 91 | 1017.0 |
| 20260506092610 | 62 | 147 | 0.0 | 0.0 | 0.00 | 0.00 | 0.00 | 91 | 1017.1 |
| 20260506092111 | 62 | 147 | 0.0 | 0.0 | 0.00 | 0.00 | 0.00 | 91 | 1017.0 |
| 20260506091610 | 62 | 147 | 0.0 | 0.0 | 0.00 | 0.00 | 0.00 | 91 | 1017.0 |
| 20260506085611 | 63 | 147 | 0.0 | 0.0 | 0.00 | 0.00 | 0.00 | 90 | 1016.9 |
| 20260506083611 | 63 | 147 | 0.0 | 0.0 | 0.00 | 0.00 | 0.00 | 90 | 1016.9 |
| 20260506082610 | 63 | 147 | 0.0 | 0.0 | 0.00 | 0.00 | 0.00 | 90 | 1016.8 |
| 20260506082110 | 63 | 147 | 0.0 | 0.0 | 0.00 | 0.00 | 0.00 | 90 | 1016.9 |
| 20260506081611 | 63 | 147 | 0.0 | 1.0 | 0.00 | 0.00 | 0.00 | 90 | 1016.8 |
| 20260506081110 | 63 | 147 | 0.0 | 1.0 | 0.00 | 0.00 | 0.00 | 90 | 1016.8 |
| 20260506080610 | 63 | 147 | 0.0 | 0.0 | 0.00 | 0.00 | 0.00 | 89 | 1016.8 |
| 20260506080116 | 63 | 147 | 0.0 | 0.0 | 0.00 | 0.00 | 0.00 | 89 | 1016.8 |
| 20260506072610 | 63 | 147 | 0.0 | 0.0 | 0.00 | 0.00 | 0.00 | 88 | 1017.2 |
| 20260506072110 | 64 | 147 | 0.0 | 0.0 | 0.00 | 0.00 | 0.00 | 88 | 1017.1 |
| 20260506071610 | 64 | 147 | 0.0 | 0.0 | 0.00 | 0.00 | 0.00 | 88 | 1017.2 |
| 20260506071110 | 64 | 147 | 0.0 | 0.0 | 0.00 | 0.00 | 0.00 | 88 | 1017.2 |
| 20260506070610 | 64 | 147 | 0.0 | 0.0 | 0.00 | 0.00 | 0.00 | 88 | 1017.3 |
| 20260506070116 | 64 | 147 | 0.0 | 0.0 | 0.00 | 0.00 | 0.00 | 87 | 1017.2 |
| 20260506062110 | 65 | 147 | 0.0 | 0.0 | 0.00 | 0.00 | 0.00 | 86 | 1017.5 |
| 20260506061610 | 65 | 147 | 0.0 | 0.0 | 0.00 | 0.00 | 0.00 | 86 | 1017.5 |
| 20260506061110 | 65 | 147 | 0.0 | 0.0 | 0.00 | 0.00 | 0.00 | 85 | 1017.5 |
| 20260506060610 | 65 | 147 | 0.0 | 0.0 | 0.00 | 0.00 | 0.00 | 85 | 1017.6 |
| 20260506060116 | 65 | 147 | 0.0 | 0.0 | 0.00 | 0.00 | 0.00 | 85 | 1017.6 |